Reflectivity
-20 -20 -20 -20 -20 -20 -20 -20 -20 -20 -20 -20 -20 -20 -20 -20 -20 -20 -20 -20 -20 -20 -20 -20 -20 -8 -13 -20 -20 -20 -20 -20 -7 5 -20 -20 -20 -20 -20 -20 -20 -20 -20
-20 -20 -20 -20 -20 -20 -20 -20 -20 -20 -20 -20 -20 -20 -20 -20 -20 -20 -20 -20 -20 -20 -20 -20 -20 -20 -20 -20 -20 -20 -20 -20 -20 7 -19 -20 -20 -20 -20 -20 -20 -20 -20
-11 15 -14 -15 -20 -20 -20 -20 -20 -20 -20 -20 -20 -20 -20 -20 -20 -20 -20 -20 -20 -20 -20 6 -16 -20 -20 -20 -20 -20 -20 -20 -20 -20 -20 -20 -20 -20 -20 -20 -20 -20 -20
-20 -20 11 -0 -14 -20 -20 -20 -20 -20 -20 -20 -20 -20 -20 -20 -20 -20 -20 -20 -20 -20 -20 -12 -20 -20 -20 -20 -20 -20 -20 -20 -20 -20 -20 -20 -20 -20 -20 -20 -20 -20 -20
-20 -20 -20 -20 -20 -20 -20 -17 -12 -20 -20 -20 -20 -20 -20 -20 -20 -20 -20 -20 -20 -20 -20 -14 -20 -20 -20 -20 -20 -20 -20 -20 -20 -20 -20 -20 -20 -20 -20 -20 -20 -20 -20
-20 -20 -20 -20 -20 -20 -20 -20 -20 -20 -20 -9 -20 -20 -20 -20 -20 -20 -20 -20 -20 -20 -20 -20 -20 -20 -20 -20 -20 -20 -20 -20 -20 -20 -20 -20 -20 -20 -20 -20 -20 -20 -20
-20 -20 -20 -20 -20 -20 -20 -20 -20 -20 -20 -20 -20 -20 -20 13 -4 30 -20 -2 -10 -20 -20 -20 -20 -20 -4 -20 -20 -20 -20 -20 -20 -20 -20 -20 -20 -14 -2 -20 -20 -20 -20
-20 -20 -20 -20 -20 -20 -20 -20 -20 -20 -20 -20 -20 -20 -20 -20 -20 -20 -20 -20 -16 -20 -20 -20 -20 -20 -17 -20 -20 -20 -20 -20 -20 -20 -20 -20 -20 -20 6 -20 -20 -20 -20
-20 -20 -20 -20 -20 -20 -20 -20 -20 -20 -20 -20 -20 -20 -20 -20 -20 -20 -20 -20 -16 -20 6 -20 -10 -15 -20 -20 -20 -20 -20 -20 -20 -20 -20 -20 -20 -20 3 -14 -20 -20 -20
-20 -20 -20 -20 -20 -20 -20 -20 -20 -20 -20 -20 -20 -20 -20 -20 -20 -20 -20 -20 -20 10 15 8 -18 26 -5 -20 -20 -20 -20 -20 -20 -20 -20 -20 -20 -20 -20 -10 -20 -20 -20
-20 -20 -20 -20 -20 -20 -20 -20 -20 -20 -20 -20 -20 -20 -20 -20 -20 -20 -20 -20 -20 -20 -20 -20 6 18 7 -4 -19 -20 -8 -20 -20 -20 -20 -20 -20 -20 -20 -20 1 -20 -20
-20 -20 -20 -20 -20 -20 -20 -20 -20 -20 -20 -20 -20 -20 -20 -20 -20 -20 -20 -20 -20 -20 -20 -20 -20 -9 1 1 -3 -20 -20 -9 -20 -20 -20 -20 -20 -20 -20 -20 14 -20 -20
-20 -20 -20 -20 -20 -20 -20 -20 -20 -20 -20 -20 -20 -20 -20 -20 -20 -20 -20 -20 -20 -20 -20 -20 -20 -20 -20 -20 -1 -8 -7 -20 -20 -20 -20 -20 -20 -20 -20 -20 13 18 6
-20 -20 -20 -20 -20 -20 -20 -20 -20 -20 -20 -20 -20 -20 -20 -20 -20 -20 -20 -20 -20 -20 -20 -20 -20 -20 -20 -20 -20 6 -19 18 -15 12 -3 -20 13 -13 -18 19 -15 15 14
-20 -20 -20 -20 -20 -20 -20 -20 -20 -20 -20 -20 -20 -20 -20 -20 -20 -20 -20 -20 -20 -20 -20 -20 -20 -20 -20 -20 -20 -20 -16 6 -13 15 0 4 -20 -9 10 21 11 4 0
-20 -20 -20 -20 -20 -20 -20 -20 -20 -20 -20 -20 -20 -20 -20 -20 -20 -20 -20 -20 -20 -20 -20 -20 -20 -20 -20 -20 -20 -20 -20 -20 -11 10 4 12 22 11 12 21 20 15 5
-20 -20 -20 -20 -20 -20 -20 -20 -20 -20 -20 -20 -20 -20 -20 -20 -20 -20 -20 -20 -20 -20 -20 -20 -20 -20 -20 -20 -20 -20 -20 -20 -20 -20 -18 -20 -19 -20 -19 16 30 24 21
-20 -20 -20 -20 -20 -20 -20 -20 -20 -20 -20 -20 -20 -20 -20 -20 -20 -20 -20 -20 -20 -20 -20 -20 -20 -20 -20 -20 -20 -20 -20 -20 -20 -20 -20 -20 -20 -20 -20 -20 -20 1 31
-20 -20 -20 -20 -20 -20 -20 -20 -20 -20 -20 -20 -20 -20 -20 -20 -20 -20 -20 -20 -20 -20 -20 -20 -20 -20 -20 -20 -20 -20 -20 -20 -20 -20 -20 -20 -20 -20 -20 -20 -20 -20 -20
-20 -20 -20 -20 -20 -20 -20 -20 -20 -20 -20 -20 -20 -20 -20 -20 -20 -20 -20 -20 -20 -20 -20 -20 -20 -20 -20 -20 -20 -20 -20 -20 -20 -20 -20 -20 -20 -20 -20 -20 -20 -20 -20
-20 -20 -20 -20 -20 -20 -20 -20 -20 -20 -20 -20 -20 -20 -20 -20 -20 -20 -20 -20 -20 -20 -20 -20 -20 -20 -20 -20 -20 -20 -20 -20 -20 -20 -20 -20 -20 -20 -20 -20 -20 -20 -20
-20 -20 -20 -20 -20 -20 -20 -20 -20 -20 -20 -20 -20 -20 -20 -20 -20 -20 -20 -20 -20 -20 -20 -20 -20 -20 -20 -11 -20 -20 -20 -20 -20 -20 -20 -20 -20 -20 -20 -20 -20 -20 -15
-20 -20 -20 -20 -20 -20 -20 -20 -20 -20 -20 -20 -20 -20 -20 -20 -20 -20 -20 -20 -20 -20 -18 -10 -18 -20 -20 -6 -10 -8 -20 -9 -20 -20 -20 -20 -20 -20 -20 -20 -20 -20 -20
-20 -20 -20 -20 -20 -20 -20 -20 -20 -20 -20 -20 -20 -20 -20 -20 -20 -20 -20 -20 -20 -20 -20 -20 -20 -20 -8 7 0 -5 4 5 -3 -5 -20 -20 -20 -20 -20 -20 -20 -20 -20
-20 -20 -20 -20 -20 -20 -20 -20 -20 -20 -20 -20 -20 -20 -20 -20 -20 -20 -20 -20 -20 -20 -20 -20 -20 -20 -20 -9 -20 -12 -10 12 11 -9 -20 -20 -20 -20 -20 -20 -20 -20 -20
-20 -20 -20 -20 -20 -20 -20 -20 -20 -20 -20 -20 -20 -20 -20 -20 -20 -20 -20 -20 -20 -20 -20 -20 -20 -20 -20 -20 -7 -20 -9 2 9 8 6 -20 -20 -20 -19 -20 -20 -20 -20
Wind_Speed
0 3 5 8 8 7 7 7 6 6 5 5 4 4 5 5 5 5 4 4 3 2 2 4 5 6 5 6 6 6 6 7 6 7 8 7 7 7 7 8 6 3 6
3 4 5 8 7 7 6 6 5 4 3 3 3 3 3 3 3 3 3 2 2 2 1 1 2 3 4 4 5 4 4 4 4 4 5 5 3 4 6 7 6 5 6
6 6 6 8 6 6 5 5 4 2 1 1 1 2 2 2 2 2 2 1 2 1 2 5 2 3 2 3 3 2 2 2 1 1 2 1 0 1 3 4 5 4 4
8 7 7 10 9 7 5 3 3 2 1 1 2 2 2 2 2 2 2 1 2 2 4 3 2 1 1 1 1 1 1 2 3 3 2 3 4 5 4 5 4 4 3
8 6 7 11 11 11 10 9 7 4 1 2 3 3 4 4 4 4 3 3 3 4 4 3 3 3 3 3 3 3 3 4 5 4 3 4 4 10 9 7 6 5 3
7 5 7 11 10 10 10 9 9 8 8 7 6 4 5 6 6 7 6 5 6 6 6 7 6 7 6 5 5 6 5 5 6 4 3 6 6 10 11 8 8 7 5
6 6 6 10 11 11 10 10 9 9 9 9 8 7 7 7 8 9 8 8 8 8 8 9 9 9 9 8 8 8 8 7 4 5 3 5 5 11 12 10 9 8 7
8 7 7 10 11 10 10 11 10 8 8 9 8 9 9 9 10 11 12 11 10 11 11 11 11 11 10 11 10 9 8 8 5 5 5 4 8 11 14 12 11 10 9
7 7 6 6 8 10 10 12 12 12 10 12 12 11 10 10 11 13 13 14 14 12 12 12 12 13 12 12 12 10 9 9 5 4 6 4 9 11 12 13 12 11 10
6 7 6 6 6 6 5 13 13 13 15 13 14 14 13 11 12 13 13 14 16 14 11 12 13 13 13 13 13 11 10 10 6 5 5 5 12 13 15 14 14 13 13
5 6 5 6 6 6 5 7 10 12 13 12 11 12 8 5 6 7 9 12 15 17 16 16 14 14 13 12 12 11 10 4 5 5 4 11 16 17 17 16 16 16 15
3 3 4 5 5 5 4 6 6 6 5 5 5 6 5 5 5 7 8 12 15 15 16 18 17 15 10 4 4 9 5 6 5 6 6 15 19 19 18 16 16 17 16
3 2 4 4 4 5 4 3 3 3 3 4 6 5 5 5 4 4 4 4 5 8 5 8 8 6 7 4 4 5 6 6 5 5 9 15 20 20 19 17 17 18 17
4 3 3 4 4 4 3 3 3 3 3 4 4 6 4 3 4 4 3 5 4 3 6 5 4 6 6 6 6 6 6 5 4 5 7 13 18 21 20 19 18 20 19
5 3 3 3 4 4 5 4 4 4 4 4 5 5 4 4 5 4 4 4 4 4 3 5 5 5 6 6 5 5 6 6 6 4 3 10 11 15 20 20 19 21 22
5 4 2 2 4 4 4 4 4 4 4 4 4 5 6 4 5 4 5 5 5 4 4 4 4 4 5 4 6 6 5 5 5 5 3 5 11 12 15 17 19 19 21
4 5 3 3 4 4 3 4 4 4 5 4 4 6 6 6 6 6 5 6 6 7 7 5 5 3 4 4 5 5 5 5 4 5 4 4 5 8 11 16 20 19 20
5 4 3 3 4 3 3 3 3 3 3 4 4 4 6 6 6 5 6 6 8 6 6 6 5 6 4 4 4 5 4 4 4 4 4 4 4 4 6 11 14 15 18
6 5 3 2 2 2 2 2 2 3 3 3 3 3 5 5 5 4 5 5 7 6 6 7 7 4 6 6 6 4 4 4 5 4 6 5 5 5 5 7 11 12 14
6 5 4 3 2 2 2 1 2 2 2 2 2 2 4 4 5 4 4 5 5 6 6 7 7 6 5 7 7 5 5 4 4 4 4 4 5 5 5 6 5 5 9
5 5 5 3 1 2 2 1 1 1 2 1 2 4 4 4 6 6 4 4 4 7 8 9 7 9 6 9 4 6 5 4 5 4 4 4 7 6 7 7 6 7 8
5 5 4 4 2 2 1 1 1 1 1 1 2 3 3 4 4 5 5 4 7 6 7 6 7 5 5 7 4 3 4 4 5 5 5 6 7 6 7 8 10 10 9
6 7 6 5 4 2 2 0 2 2 2 3 3 2 3 3 5 5 5 5 4 6 5 6 6 7 5 6 7 2 4 3 6 1 3 4 6 6 7 6 10 12 11
8 6 6 4 3 3 2 1 1 1 1 2 2 1 2 3 3 3 4 4 4 3 4 3 4 4 4 4 4 6 3 2 2 5 3 4 5 6 8 7 7 9 9
6 7 6 4 3 3 3 3 2 3 2 1 1 1 2 2 2 3 4 4 4 3 4 5 5 5 4 3 3 3 3 4 1 2 4 5 3 5 5 7 7 6 9
4 4 4 5 5 5 4 4 5 5 4 3 2 2 2 1 2 3 3 3 3 4 4 3 2 4 4 4 4 4 4 3 3 3 2 6 5 3 4 5 7 6 6
Wind_Direction
150 135 144 132 122 109 97 91 79 74 69 68 66 66 66 65 70 72 70 70 70 64 36 23 34 56 80 83 73 57 50 49 64 89 105 105 113 110 83 112 85 82 80
110 115 124 120 122 116 106 104 98 89 71 62 61 56 55 56 54 57 58 52 49 70 52 350 31 52 70 78 80 67 58 63 63 56 78 76 77 98 101 100 98 99 85
74 70 98 111 117 117 122 120 121 120 97 53 29 38 35 37 25 30 43 20 6 23 356 295 92 55 63 73 84 77 49 29 9 53 99 99 278 137 120 119 120 116 98
71 51 62 86 86 86 93 115 150 177 215 297 323 320 313 324 329 328 328 304 296 314 349 15 90 95 87 6 327 280 232 285 299 301 302 258 246 220 181 157 143 134 123
62 54 68 77 75 71 64 56 52 42 337 262 267 282 290 295 289 286 286 274 270 275 289 275 224 222 226 248 267 272 265 257 279 300 305 283 266 243 205 180 168 165 166
78 70 78 80 76 72 65 55 47 37 28 21 6 321 284 286 286 282 276 257 260 261 264 266 268 241 239 243 252 257 256 256 274 286 281 282 288 226 197 190 188 186 186
84 57 59 68 64 60 56 47 39 29 17 10 359 349 339 323 310 292 282 270 261 257 262 264 264 263 248 243 248 253 256 266 250 273 262 280 303 240 206 194 189 189 202
82 57 44 44 46 42 40 31 27 18 9 0 351 343 338 334 328 319 309 294 271 267 263 262 261 262 260 247 250 251 249 255 252 261 267 267 281 280 224 200 204 204 208
70 66 51 41 34 30 32 25 22 15 354 359 351 345 338 331 339 337 320 305 294 276 267 264 263 264 262 256 250 243 244 249 243 252 266 251 263 285 267 214 207 211 215
62 58 45 34 28 24 26 21 21 21 21 20 22 19 16 15 358 356 7 352 338 304 277 268 265 261 260 257 250 242 241 247 242 241 250 257 258 262 265 254 219 218 219
52 48 45 33 27 17 31 20 19 19 19 19 20 13 9 4 357 2 357 1 0 359 338 307 283 261 253 245 249 248 242 232 230 235 238 250 263 264 263 269 218 220 222
87 50 43 39 32 24 25 19 14 14 14 15 8 7 5 7 355 0 356 359 355 352 351 352 333 297 274 237 243 245 242 230 230 236 239 241 251 257 257 259 223 221 222
139 76 44 36 34 31 26 20 10 6 6 2 2 5 359 360 357 356 349 350 346 348 347 342 343 340 315 272 236 235 237 224 235 239 244 242 250 253 254 249 235 228 226
132 110 67 41 30 25 25 22 9 14 1 356 347 358 7 355 355 344 344 331 337 328 329 333 326 322 325 305 268 252 240 234 238 243 245 242 251 256 256 251 244 231 231
127 109 59 50 34 23 39 12 11 359 1 342 357 356 360 360 346 332 335 326 324 324 314 321 324 325 326 324 307 269 259 248 244 242 253 265 263 268 268 260 258 235 233
138 126 91 59 41 39 45 19 8 359 345 5 13 11 16 11 356 349 332 329 325 321 308 304 301 305 308 320 319 317 289 280 274 260 249 258 260 262 273 287 274 253 247
157 151 134 101 62 60 38 26 26 19 36 39 23 20 14 16 0 349 347 350 345 335 325 321 313 301 306 310 302 309 309 308 299 294 289 273 282 272 265 272 269 266 263
149 154 115 72 73 70 56 46 45 35 38 38 33 16 11 12 8 357 358 354 343 340 344 347 342 329 318 308 305 301 303 303 298 292 285 284 277 282 277 271 279 289 277
158 146 135 104 82 67 68 68 52 44 45 50 43 26 9 9 10 10 358 347 350 350 354 349 342 344 336 347 321 299 306 297 296 306 299 305 302 294 295 283 277 277 281
156 150 141 148 123 97 89 48 29 21 3 56 26 28 19 5 9 10 352 345 353 356 356 355 344 353 329 353 326 331 303 289 292 300 314 319 346 352 344 341 316 304 281
157 159 175 160 106 91 53 13 1 322 313 9 351 359 7 13 11 356 342 347 358 4 1 358 352 348 352 358 340 334 308 333 16 359 34 40 24 8 13 19 26 22 15
172 188 179 171 158 129 138 215 199 234 285 263 318 343 337 28 21 9 342 341 5 360 0 353 358 346 347 357 344 299 332 334 10 10 50 37 22 2 12 24 36 28 22
188 195 193 194 184 172 178 15 12 18 8 359 348 344 335 22 42 23 5 354 352 360 358 356 352 356 347 348 345 355 345 4 340 9 55 32 14 360 3 24 37 32 23
208 197 199 198 194 205 176 131 161 191 228 244 242 266 350 40 71 44 25 12 351 339 350 342 0 345 347 347 320 11 0 291 314 315 343 5 2 18 25 38 38 34 21
189 199 207 205 214 223 211 192 196 223 233 259 278 297 345 12 43 23 22 5 2 3 1 6 358 360 1 359 10 344 319 305 32 297 305 331 350 11 50 42 46 39 21
205 217 224 215 230 227 218 220 216 225 238 247 253 255 290 295 306 340 353 353 338 349 355 352 346 11 354 22 22 17 20 1 7 338 317 323 330 323 63 57 44 31 21